This demonstration page uses our WeatherBlox Daily Observations layout. Learn more.

Left ArrowRight Arrow

39.51506, -84.39828

Hourly Observations for May 19, 2019

Temp ( °F °C ) Dew Point ( °F °C ) Humidity (%) Winds ( mph kmh ) Pressure ( in mb ) Visibility ( mi km ) Precip ( " mm )
12:15 am 00:15 Clear 73 23 64 17.8 73 73 SW 5 7 29.87 1011 10 16 0.00 0.00
12:35 am 00:35 Clear 72 22.4 64 17.7 75 75 WSW 3 6 29.87 1011 10 16 0.00 0.00
12:55 am 00:55 Clear 74 23.3 64 17.8 71 71 SW 5 7 29.87 1011 10 16 0.00 0.00
1:15 am 01:15 Clear 71 21.9 64 17.6 77 77 WSW 6 9 29.86 1011 10 16 0.00 0.00
1:35 am 01:35 Partly Cloudy 73 22.5 64 17.7 74 74 WSW 8 13 29.87 1011 10 16 0.00 0.00
1:55 am 01:55 Partly Cloudy 72 22.3 64 17.6 75 75 SW 6 9 29.86 1011 10 16 0.00 0.00
2:15 am 02:15 Clear 71 21.6 64 17.5 78 78 SW 5 7 29.85 1011 10 16 0.00 0.00
2:35 am 02:35 Clear 70 21.3 63 17.4 79 79 SW 5 7 29.84 1011 10 16 0.00 0.00
2:55 am 02:55 Clear 70 21.3 63 17.3 78 78 SSW 3 6 29.84 1011 10 16 0.00 0.00
3:15 am 03:15 Clear 70 21.3 63 17.3 78 78 SW 6 9 29.84 1011 10 16 0.00 0.00
3:35 am 03:35 Clear 67 19.3 63 17.2 88 88 SW 3 6 29.84 1010 10 16 0.00 0.00
3:55 am 03:55 Clear 66 19.1 62 16.8 87 87 WSW 5 7 29.85 1011 10 16 0.00 0.00
4:15 am 04:15 Clear 68 20.2 63 17.3 84 84 SW 7 11 29.84 1011 10 16 0.00 0.00
4:35 am 04:35 Clear 70 21.1 63 17.2 79 79 SW 9 15 29.85 1011 10 16 0.00 0.00
4:55 am 04:55 Clear 70 21.2 63 17.2 78 78 SW 9 15 29.84 1011 10 16 0.00 0.00
5:15 am 05:15 Clear 70 20.9 63 17.1 79 79 SW 8 13 29.85 1011 10 16 0.00 0.00
5:35 am 05:35 Clear 69 20.7 63 17.1 80 80 SW 10 17 29.85 1011 10 16 0.00 0.00
5:55 am 05:55 Clear 70 21.1 63 17.2 79 79 SW 8 13 29.85 1011 10 16 0.00 0.00
6:15 am 06:15 Clear 70 21.3 63 17.2 78 78 SSW 8 13 29.84 1011 10 16 0.00 0.00
6:35 am 06:35 Sunny 70 21.3 63 17.2 78 78 SSW 9 15 29.84 1011 10 16 0.00 0.00
6:55 am 06:55 Sunny 71 21.4 63 17.3 78 78 SSW 10 17 29.84 1011 10 16 0.00 0.00
7:15 am 07:15 Sunny 71 21.5 63 17.3 77 77 SSW 13 20 29.83 1010 10 16 0.00 0.00
7:35 am 07:35 Sunny 72 22 63 17.4 75 75 SSW 13 20 29.83 1010 10 16 0.00 0.00
7:55 am 07:55 Sunny 73 23 64 17.6 72 72 SSW 12 19 29.82 1010 10 16 0.00 0.00
8:15 am 08:15 Sunny 73 22.6 63 17.3 72 72 SSW 15 24 29.82 1010 10 16 0.00 0.00
8:35 am 08:35 Sunny 73 22.9 64 17.6 72 72 SSW 15 24 29.82 1010 10 16 0.00 0.00
8:55 am 08:55 Sunny 73 22.9 64 17.6 72 72 SW 13 20 29.83 1010 10 16 0.00 0.00
9:15 am 09:15 Mostly Cloudy 74 23.6 64 17.8 70 70 SSW 13 20 29.83 1010 10 16 0.00 0.00
9:35 am 09:35 Mostly Cloudy 74 23.6 64 17.9 70 70 SSW 14 22 29.83 1010 10 16 0.00 0.00
9:55 am 09:55 Mostly Cloudy 75 23.9 64 17.9 69 69 SSW 14 22 29.84 1010 10 16 0.00 0.00
10:15 am 10:15 Partly Cloudy 76 24.3 64 17.9 68 68 SW 14 22 29.83 1010 10 16 0.00 0.00
10:35 am 10:35 Mostly Cloudy 77 24.9 64 17.9 65 65 SW 13 20 29.83 1010 10 16 0.00 0.00
10:55 am 10:55 Partly Cloudy 78 25.8 64 17.6 61 61 SW 23 37 29.83 1010 10 16 0.00 0.00
11:15 am 11:15 Partly Cloudy 79 25.9 64 17.5 60 60 WSW 18 30 29.83 1010 10 16 0.00 0.00
11:35 am 11:35 Cloudy 77 24.8 62 16.5 60 60 WSW 18 30 29.83 1010 10 16 0.00 0.00
11:55 am 11:55 Cloudy 77 25.1 62 16.9 60 60 WSW 14 22 29.82 1010 10 16 0.00 0.00
12:15 pm 12:15 Cloudy 78 25.3 61 16.1 57 57 SW 17 28 29.82 1010 10 16 0.00 0.00
12:55 pm 12:55 Cloudy 78 25.3 59 15.1 53 53 SW 22 35 29.81 1010 10 16 0.00 0.00
1:15 pm 13:15 Cloudy 78 25.3 58 14.2 50 50 SW 22 35 29.81 1010 10 16 0.00 0.00
1:35 pm 13:35 Cloudy 77 25.1 57 14.1 51 51 SW 22 35 29.81 1010 10 16 0.00 0.00
1:55 pm 13:55 Cloudy with Light Rain 76 24.6 59 14.9 55 55 SW 18 30 29.81 1010 10 16 0.00 0.00
2:15 pm 14:15 Cloudy 76 24.4 59 14.9 56 56 SW 14 22 29.79 1009 10 16 0.00 0.00
2:35 pm 14:35 Partly Cloudy 77 24.8 60 15.4 56 56 SSW 15 24 29.78 1009 10 16 0.00 0.00
2:55 pm 14:55 Mostly Cloudy 76 24.7 61 15.9 58 58 SW 17 28 29.78 1009 10 16 0.00 0.00
3:15 pm 15:15 Cloudy with Light Rain 76 24.3 60 15.7 59 59 SW 15 24 29.78 1009 10 16 0.00 0.00
3:35 pm 15:35 Cloudy with Light Rain 74 23.2 60 15.5 62 62 WSW 28 44 29.80 1009 10 16 0.00 0.00
3:55 pm 15:55 Cloudy 72 22.4 61 16.1 68 68 WSW 20 31 29.80 1009 10 16 0.00 0.00
4:15 pm 16:15 Cloudy 73 22.8 61 16 66 66 SW 26 43 29.80 1009 10 16 0.00 0.00
4:35 pm 16:35 Cloudy with Light Rain 69 20.4 62 16.6 79 79 WNW 14 22 29.84 1011 7 11 0.00 0.00
4:55 pm 16:55 Cloudy with Light Rain 65 18.2 63 17.1 93 93 NW 12 19 29.84 1010 10 16 0.03 0.76
5:15 pm 17:15 Cloudy 65 18.6 63 17.4 93 93 W 5 7 29.84 1010 10 16 0.00 0.00
5:35 pm 17:35 Cloudy 68 20.2 65 18.2 88 88 W 5 7 29.82 1010 10 16 0.00 0.00
5:55 pm 17:55 Mostly Cloudy with Light Rain 71 21.5 66 18.7 84 84 WSW 17 28 29.80 1009 7 11 0.01 0.25
6:15 pm 18:15 Sunny 72 22.1 66 19 83 83 WSW 14 22 29.79 1009 10 16 0.00 0.00
6:35 pm 18:35 Sunny 72 22.3 65 18.5 79 79 WSW 15 24 29.79 1009 10 16 0.00 0.00
6:55 pm 18:55 Sunny 73 22.7 65 18.5 77 77 WSW 18 30 29.78 1008 10 16 0.00 0.00
7:15 pm 19:15 Sunny 73 22.9 65 18.3 75 75 WSW 16 26 29.77 1008 10 16 0.00 0.00
7:35 pm 19:35 Sunny 73 22.8 64 17.9 74 74 WSW 18 30 29.78 1008 10 16 0.00 0.00
7:55 pm 19:55 Sunny 73 23 64 18 74 74 SW 14 22 29.78 1008 10 16 0.00 0.00
8:15 pm 20:15 Sunny 72 22.4 64 18 76 76 SW 14 22 29.78 1008 10 16 0.00 0.00
8:35 pm 20:35 Sunny 71 21.9 64 17.9 78 78 SW 12 19 29.78 1008 10 16 0.00 0.00
8:55 pm 20:55 Clear 71 21.7 64 17.9 79 79 SW 14 22 29.78 1008 10 16 0.00 0.00
9:15 pm 21:15 Clear 71 21.7 64 18 80 80 SW 12 19 29.79 1009 10 16 0.00 0.00
9:35 pm 21:35 Mostly Cloudy 71 21.7 65 18.2 81 81 W 10 17 29.80 1009 10 16 0.00 0.00
9:55 pm 21:55 Cloudy with Heavy Rain 63 17 59 14.8 87 87 WNW 12 19 29.85 1011 5 8 0.07 1.78
10:10 pm 22:10 Cloudy with Light Rain 61 16.2 59 15.2 94 94 WSW 9 15 29.85 1011 5 8 0.08 2.03
10:35 pm 22:35 Cloudy with Light Rain 62 16.7 61 16 96 96 SW 6 9 29.85 1011 7 11 0.14 3.56
10:55 pm 22:55 Cloudy with Drizzle 63 17 61 16.1 94 94 SW 3 6 29.86 1011 10 16 0.14 3.56
11:35 pm 23:35 Cloudy 63 17.1 61 16.3 95 95 SSW 6 9 29.86 1011 10 16 0.00 0.00
11:55 pm 23:55 Cloudy 63 17 61 16.2 95 95 SW 6 9 29.86 1011 10 16 0.00 0.00

Powered by AerisWeather